Temperature
18 18 18 18 17 17 17 17 17 16 17 17 17 17 16 16 16 16 16 16 16 16 16 15 15 15 15 15 15 15 15 15 15 14 14 14 14 14
18 18 18 17 17 17 17 17 17 17 16 16 16 16 16 16 16 16 16 16 16 15 15 15 15 15 15 15 15 15 14 14 14 14 14 14 14 13
18 18 17 17 17 17 17 17 17 17 16 16 16 16 16 16 16 16 15 15 15 15 15 15 15 15 15 14 14 14 14 14 14 14 14 13 13 13
18 17 17 17 17 17 17 17 17 17 16 16 16 16 16 15 15 15 15 15 15 15 15 15 14 14 14 14 14 14 14 14 14 14 13 13 13 13
18 17 17 17 17 17 17 17 16 16 16 16 16 16 15 15 15 15 15 15 14 14 14 14 14 14 14 14 14 14 13 13 13 13 13 13 13 12
17 17 17 17 17 17 17 16 16 16 16 16 16 16 15 15 15 15 15 14 14 14 14 14 14 14 14 13 13 13 13 13 13 13 13 12 12 12
17 17 17 17 17 17 16 16 16 16 16 16 15 15 15 15 15 15 14 14 14 14 14 14 13 13 13 13 13 13 13 13 12 12 12 12 12 12
17 17 17 17 16 16 16 16 16 16 16 16 15 15 15 15 15 14 14 14 14 14 13 13 13 13 13 13 13 12 12 12 12 12 12 12 12 11
17 17 16 16 16 16 16 16 16 16 15 15 15 15 15 15 15 14 14 14 14 14 13 13 13 13 12 12 12 12 12 12 12 11 11 11 11 11
16 16 16 16 16 16 15 15 15 15 15 15 15 15 15 14 14 14 14 14 13 13 13 13 13 13 12 12 12 12 11 11 11 11 11 11 11 10
16 16 16 16 16 15 15 15 15 15 15 15 15 15 14 14 14 14 13 13 13 13 12 12 12 12 12 12 12 11 11 11 11 11 10 10 10 10
16 15 15 15 15 15 15 15 14 15 14 14 14 14 14 14 14 13 13 13 13 12 12 12 12 11 11 11 11 11 11 10 10 10 10 10 9 9
15 15 15 15 15 15 14 14 14 14 14 14 14 14 13 13 13 13 13 13 12 12 12 12 11 11 11 11 11 11 10 10 10 10 9 9 9 9
15 15 15 14 14 14 14 14 14 13 13 13 13 13 13 13 13 13 12 12 12 12 11 11 11 11 11 11 10 10 10 10 10 10 9 9 9 9
15 14 14 14 14 14 14 13 13 13 13 13 13 12 12 12 12 12 12 11 11 11 11 11 11 10 10 10 10 10 10 10 9 9 9 9 9 9
14 14 14 13 13 13 13 13 13 12 12 12 12 12 12 12 11 11 11 11 11 11 10 10 10 10 10 10 10 9 9 9 9 9 9 9 9 8
14 13 13 13 13 13 13 12 12 12 12 11 11 11 11 11 11 11 10 10 10 10 10 10 10 10 9 9 9 9 9 9 9 9 8 8 8 8
13 13 13 12 12 12 12 12 11 11 11 11 11 11 10 10 10 10 10 10 10 10 10 9 9 9 9 9 9 9 9 9 8 8 8 8 8 8
12 12 12 12 12 11 11 11 11 11 10 10 10 10 10 10 10 9 9 9 9 9 9 9 9 9 8 8 9 8 8 8 8 8 8 8 8 8
12 12 11 11 11 11 11 10 10 10 10 10 9 9 9 9 9 9 9 9 8 8 8 8 8 8 8 8 8 8 8 8 8 8 8 8 7 7
11 11 11 11 10 10 10 10 9 9 9 9 9 9 9 8 8 8 8 8 8 8 8 8 8 8 8 7 7 7 8 7 7 7 7 7 7 7
10 10 10 10 10 10 9 9 9 9 8 8 8 8 8 8 8 8 7 7 7 7 7 7 7 7 7 7 7 7 7 7 7 7 7 7 6 6
10 10 9 9 9 9 9 9 8 8 8 8 8 7 7 7 7 7 7 7 7 7 7 7 7 7 7 7 6 6 7 7 7 7 6 6 6 6
Wind_Speed
3 3 2 3 2 2 3 4 4 2 3 3 1 1 3 4 6 6 6 7 7 7 7 7 7 6 6 6 6 6 6 6 6 6 7 7 7 7
3 3 3 2 2 2 2 2 3 4 3 3 2 2 2 3 5 6 6 7 7 7 7 6 6 5 5 6 6 6 5 5 5 5 6 6 6 6
4 4 4 3 2 2 2 2 2 3 3 2 1 1 1 2 3 4 4 5 5 7 7 6 6 5 5 5 5 5 6 6 6 6 5 6 5 5
5 5 5 3 4 3 3 3 2 3 3 3 2 2 3 3 3 3 3 4 5 6 7 7 6 6 5 5 5 5 6 6 6 6 6 6 5 5
5 5 5 4 4 3 3 3 2 2 2 3 2 2 2 2 2 2 2 1 3 5 6 7 6 6 6 6 5 6 6 6 6 6 6 6 5 5
4 5 5 5 5 4 3 3 3 2 2 2 2 2 2 2 2 2 2 1 2 2 4 4 5 6 6 6 6 6 7 7 7 6 6 5 5 5
4 4 5 5 6 5 4 4 4 3 3 3 3 2 2 2 3 3 3 2 2 2 2 2 3 3 5 6 7 7 7 8 7 7 7 6 6 5
4 4 4 4 5 6 6 7 6 5 5 4 4 4 5 4 3 3 3 2 2 3 3 3 3 3 4 6 7 8 8 8 8 8 8 7 6 6
4 3 3 3 4 3 4 4 5 6 7 6 5 6 5 6 5 4 4 4 4 3 3 3 2 3 4 6 9 9 9 9 9 8 8 8 7 7
4 4 4 3 3 4 3 2 3 3 5 5 5 6 6 5 6 6 6 3 1 1 3 3 2 3 3 4 8 10 10 10 9 9 9 8 8 8
4 3 4 4 5 5 4 3 3 3 2 3 4 3 4 5 6 4 3 3 2 2 2 3 2 1 1 2 5 9 10 10 10 10 10 9 8 7
3 3 4 4 5 6 4 4 4 3 1 1 0 0 0 1 4 5 5 4 2 2 3 3 2 2 1 2 2 5 7 8 9 10 10 10 9 6
3 3 3 4 5 6 5 5 5 3 2 2 1 0 0 0 1 2 3 5 4 3 3 4 2 2 2 1 2 3 4 3 5 6 9 11 10 8
4 3 3 4 4 4 4 3 3 3 2 2 1 1 1 1 2 2 2 3 3 4 4 4 3 3 3 2 2 1 2 3 4 3 5 8 9 11
2 3 3 3 3 2 3 3 3 2 2 2 2 2 2 2 1 0 0 1 1 1 3 4 3 3 3 3 2 2 1 2 3 3 3 4 5 5
1 1 1 2 2 2 1 1 1 2 2 2 2 1 0 0 1 1 1 1 1 2 2 3 4 4 3 3 3 3 3 2 3 4 3 3 4 7
3 1 1 1 1 1 1 1 1 1 1 1 1 1 1 0 0 1 1 1 1 2 2 2 2 2 4 4 3 3 3 3 3 3 3 3 4 6
5 3 2 2 2 1 1 1 1 1 1 1 1 1 1 1 0 0 1 1 2 2 3 2 1 1 2 2 4 4 3 3 3 3 3 3 4 5
4 3 2 2 2 2 1 1 1 0 1 1 1 0 0 0 0 0 1 1 2 2 2 2 2 2 2 3 3 4 4 3 2 3 3 4 5 5
2 3 2 2 2 2 2 1 1 1 2 1 1 0 0 0 0 0 0 1 1 1 1 1 1 3 5 5 3 2 3 3 3 3 3 3 3 4
2 2 2 2 2 2 2 2 2 2 2 1 1 1 0 0 0 0 0 0 0 0 1 2 4 3 1 1 0 2 2 3 3 3 3 2 2 2
3 2 2 3 3 3 2 2 2 2 1 1 1 1 1 1 1 1 1 1 1 1 2 3 2 0 1 1 2 3 2 2 3 3 3 4 3 4
3 3 3 3 3 2 2 3 3 1 1 1 1 1 1 1 1 1 1 1 1 1 1 2 1 1 1 2 2 2 3 3 2 2 3 5 7 8
Wind_Direction
211 205 210 227 216 203 186 175 179 217 248 247 232 217 183 178 182 174 172 173 180 186 194 202 204 206 208 211 213 217 218 215 210 209 211 213 217 223
212 212 220 225 220 211 192 184 177 184 218 231 226 229 200 184 182 176 177 175 182 188 193 197 197 199 202 204 206 205 198 189 189 193 203 208 209 209
222 217 226 214 211 221 198 184 186 173 201 239 225 205 181 185 172 178 183 182 187 188 190 192 193 197 200 203 204 199 189 185 188 186 186 186 189 200
226 223 228 218 211 214 203 205 202 192 185 216 220 195 201 196 187 181 188 196 196 197 194 195 195 197 199 202 202 201 199 193 189 183 180 182 189 198
222 219 222 214 226 225 212 210 210 205 181 185 207 198 199 183 168 184 189 202 210 208 203 205 204 202 201 201 200 199 198 192 184 179 179 181 185 190
224 220 217 214 221 220 215 210 200 196 187 181 194 194 194 181 161 187 209 224 221 206 204 207 209 211 212 208 203 199 196 192 188 187 188 189 190 189
229 226 223 223 218 208 208 203 195 198 192 192 200 194 200 185 201 193 200 199 229 203 195 213 204 213 220 218 212 207 202 200 198 197 196 194 194 196
224 230 235 230 225 218 213 204 195 196 200 201 208 211 217 208 192 186 178 177 233 216 185 226 197 216 222 216 216 209 205 202 202 205 204 201 199 198
219 225 234 231 209 217 219 210 214 211 198 195 209 218 213 206 188 192 195 192 212 202 167 221 213 225 222 221 212 206 203 204 207 209 209 206 202 199
219 215 216 221 212 200 193 205 228 237 222 210 213 222 220 205 195 197 196 190 208 195 157 200 216 223 221 214 215 210 208 209 212 215 216 213 207 203
231 221 212 217 221 197 184 207 234 265 251 206 205 213 212 197 180 159 159 160 217 238 195 181 205 204 211 225 217 209 210 214 217 218 218 215 212 207
242 234 223 221 217 192 188 195 219 243 209 148 174 276 234 167 174 184 184 184 186 219 208 174 178 150 232 254 213 204 211 221 222 222 219 216 210 199
234 239 242 236 222 204 197 203 219 201 169 163 166 166 79 167 200 196 188 184 186 211 199 166 168 165 180 224 245 216 202 210 215 225 223 218 212 201
225 229 229 223 217 206 204 214 194 160 147 151 158 186 205 221 230 215 202 201 198 197 186 166 165 175 169 187 243 244 212 209 203 212 213 216 216 217
227 232 225 211 202 200 203 184 161 158 164 176 201 224 230 226 211 216 282 187 183 187 180 179 172 177 175 190 200 197 212 232 213 208 208 206 209 206
227 235 184 148 138 136 136 160 164 164 171 191 205 226 114 121 179 188 207 215 209 273 260 206 188 178 192 201 189 201 196 207 216 214 213 218 212 211
164 136 101 97 105 104 89 97 123 127 163 198 162 165 158 115 266 231 189 179 220 244 266 267 245 219 205 190 195 211 206 216 213 199 198 228 237 222
145 146 157 166 174 166 145 130 128 147 178 152 142 169 180 181 297 259 178 188 223 241 238 238 208 23 356 297 215 206 212 220 217 203 195 215 246 241
138 152 160 163 157 146 147 153 167 156 137 133 138 181 193 98 62 18 208 214 234 241 243 225 187 172 213 263 278 213 203 219 206 206 211 213 235 243
149 153 159 155 152 153 157 153 128 106 102 106 109 102 109 123 112 60 159 172 220 231 279 282 225 210 212 225 237 255 214 202 205 222 230 233 252 266
153 155 160 157 152 152 152 147 141 141 132 138 142 141 130 131 217 252 222 223 186 206 245 261 260 255 211 122 245 284 276 247 215 211 213 220 248 253
152 152 151 147 148 149 149 141 133 131 131 146 178 179 192 188 212 227 218 222 239 237 244 266 292 10 120 187 235 257 273 293 290 270 227 208 196 210
154 149 146 143 144 141 144 142 138 147 170 187 214 230 228 234 238 224 226 219 233 262 278 290 315 319 254 235 236 251 263 269 277 297 289 283 257 250
Height
1529 1529 1529 1529 1529 1529 1529 1529 1529 1528 1527 1527 1527 1527 1527 1527 1526 1526 1525 1525 1525 1525 1526 1526 1526 1526 1525 1526 1526 1526 1526 1526 1526 1527 1527 1528 1528 1529
1527 1527 1526 1526 1526 1526 1526 1526 1526 1526 1525 1525 1525 1525 1525 1524 1524 1523 1523 1523 1523 1523 1523 1523 1523 1523 1523 1523 1523 1523 1523 1523 1524 1524 1524 1525 1525 1526
1524 1524 1523 1523 1523 1523 1523 1523 1523 1523 1522 1522 1522 1522 1522 1522 1521 1521 1520 1520 1520 1520 1520 1520 1520 1521 1521 1520 1520 1520 1521 1521 1521 1522 1522 1522 1523 1523
1521 1521 1521 1520 1520 1520 1520 1520 1520 1520 1519 1518 1519 1519 1519 1519 1519 1518 1518 1518 1518 1518 1518 1518 1518 1518 1518 1518 1518 1518 1518 1519 1519 1519 1519 1519 1520 1520
1518 1518 1518 1518 1517 1517 1517 1516 1516 1516 1516 1516 1515 1516 1516 1516 1516 1516 1515 1515 1515 1516 1516 1516 1516 1516 1516 1516 1516 1516 1516 1516 1516 1516 1516 1516 1517 1517
1516 1515 1515 1514 1514 1514 1514 1513 1513 1513 1513 1513 1513 1513 1513 1513 1513 1512 1512 1513 1513 1513 1513 1513 1514 1513 1513 1514 1514 1514 1514 1514 1514 1514 1513 1513 1513 1513
1512 1512 1512 1511 1511 1510 1510 1510 1510 1510 1509 1509 1509 1509 1509 1509 1509 1509 1509 1510 1510 1510 1510 1511 1511 1511 1511 1511 1511 1511 1511 1511 1511 1511 1510 1510 1510 1510
1508 1508 1508 1508 1507 1507 1506 1506 1506 1506 1506 1506 1505 1505 1505 1506 1506 1506 1507 1507 1507 1508 1508 1508 1508 1508 1508 1508 1508 1508 1508 1508 1508 1508 1507 1507 1507 1507
1505 1505 1504 1504 1504 1503 1503 1503 1502 1502 1503 1503 1502 1502 1502 1502 1503 1503 1503 1503 1504 1505 1505 1504 1505 1505 1505 1505 1505 1505 1505 1505 1505 1505 1505 1504 1504 1505
1502 1501 1501 1501 1500 1500 1500 1499 1499 1498 1498 1498 1498 1498 1499 1499 1499 1500 1500 1500 1501 1501 1501 1501 1501 1502 1502 1502 1503 1503 1502 1502 1502 1502 1502 1502 1502 1502
1498 1498 1498 1498 1497 1497 1497 1496 1496 1495 1495 1495 1494 1494 1495 1495 1496 1496 1496 1496 1496 1497 1497 1498 1498 1498 1498 1499 1499 1500 1500 1499 1499 1499 1499 1499 1499 1499
1494 1494 1494 1494 1494 1494 1493 1493 1492 1492 1492 1491 1491 1491 1491 1491 1491 1492 1492 1492 1492 1493 1493 1494 1494 1495 1495 1495 1496 1496 1496 1496 1496 1496 1496 1496 1496 1496
1490 1490 1490 1490 1490 1490 1489 1489 1489 1489 1489 1488 1488 1487 1487 1487 1488 1488 1488 1489 1489 1489 1489 1490 1490 1491 1492 1491 1492 1492 1492 1493 1493 1492 1493 1493 1493 1493
1485 1486 1486 1486 1486 1486 1486 1486 1486 1486 1485 1485 1484 1484 1484 1484 1484 1484 1484 1485 1485 1486 1486 1486 1486 1487 1487 1488 1488 1488 1488 1489 1489 1489 1489 1490 1490 1490
1481 1482 1483 1483 1483 1482 1482 1482 1482 1482 1482 1481 1481 1480 1481 1481 1481 1481 1481 1481 1482 1482 1482 1483 1483 1483 1484 1484 1484 1484 1485 1485 1485 1485 1485 1485 1486 1486
1477 1478 1479 1479 1479 1479 1479 1479 1479 1479 1479 1478 1478 1478 1478 1477 1477 1477 1477 1477 1478 1478 1478 1479 1479 1480 1480 1480 1480 1480 1481 1481 1481 1482 1482 1481 1482 1482
1474 1474 1474 1475 1475 1475 1475 1475 1475 1476 1476 1475 1475 1475 1475 1474 1474 1474 1474 1474 1474 1474 1475 1475 1476 1476 1476 1477 1476 1477 1477 1477 1478 1478 1477 1477 1477 1478
1470 1470 1470 1470 1470 1471 1471 1471 1471 1472 1472 1472 1472 1472 1471 1471 1471 1470 1470 1471 1471 1471 1471 1472 1472 1473 1473 1473 1474 1473 1473 1474 1474 1474 1473 1473 1473 1473
1466 1466 1466 1467 1467 1468 1468 1468 1468 1469 1470 1469 1469 1469 1469 1468 1468 1467 1467 1467 1468 1468 1468 1469 1469 1469 1468 1468 1469 1470 1470 1469 1470 1469 1469 1469 1469 1469
1462 1462 1463 1464 1465 1465 1465 1466 1466 1466 1466 1466 1466 1466 1465 1465 1465 1465 1464 1465 1465 1465 1466 1466 1466 1466 1466 1466 1466 1466 1466 1466 1466 1465 1465 1465 1465 1465
1459 1460 1461 1462 1462 1463 1463 1463 1463 1463 1463 1463 1463 1463 1462 1462 1462 1462 1462 1463 1463 1463 1463 1463 1463 1464 1463 1463 1463 1462 1463 1463 1463 1463 1462 1461 1461 1460
1457 1458 1458 1459 1459 1460 1461 1461 1461 1461 1461 1460 1460 1460 1460 1460 1460 1460 1460 1460 1460 1460 1461 1461 1461 1461 1460 1460 1459 1459 1459 1460 1460 1459 1459 1458 1457 1456
1455 1455 1456 1456 1457 1458 1458 1458 1458 1458 1458 1458 1458 1458 1458 1458 1458 1457 1458 1458 1458 1458 1458 1458 1458 1457 1457 1457 1457 1457 1456 1456 1456 1455 1455 1455 1454 1454